N2902P KISM-KFIN

Flight info

Callsign N2902P
Flight time N/A
Altitude 3500
Route VFR
Aircraft C152/L-SDF/G

Departure

Time 2026-05-01 14:31
Airport Kissimmee Gateway Airport (KISM)

Arrival

Time N/A
Airport Flagler Executive Airport (KFIN)
Time Latitude Longitude Altitude Speed Heading
2026-05-01 13:49 28.29443 -81.43470 87 ft 0 kts 270°
2026-05-01 14:22 28.29444 -81.43474 87 ft 1 kts 287°
2026-05-01 14:22 28.29434 -81.43481 88 ft 3 kts 179°
2026-05-01 14:22 28.29408 -81.43492 88 ft 4 kts 265°
2026-05-01 14:22 28.29409 -81.43496 88 ft 0 kts 297°
2026-05-01 14:25 28.29409 -81.43497 88 ft 0 kts 292°
2026-05-01 14:26 28.29410 -81.43498 88 ft 1 kts 289°
2026-05-01 14:27 28.29399 -81.43481 90 ft 7 kts 88°
2026-05-01 14:27 28.29399 -81.43406 87 ft 8 kts 90°
2026-05-01 14:27 28.29406 -81.43341 89 ft 10 kts 76°
2026-05-01 14:28 28.29482 -81.43199 91 ft 13 kts 56°
2026-05-01 14:28 28.29475 -81.43139 92 ft 0 kts 150°
2026-05-01 14:29 28.29463 -81.43132 91 ft 6 kts 150°
2026-05-01 14:30 28.29300 -81.43292 87 ft 53 kts 238°
2026-05-01 14:30 28.28964 -81.43881 313 ft 71 kts 241°
2026-05-01 14:30 28.28707 -81.44381 534 ft 75 kts 239°
2026-05-01 14:31 28.28811 -81.45284 973 ft 81 kts 307°
2026-05-01 14:31 28.29188 -81.45755 1278 ft 81 kts 313°
2026-05-01 14:31 28.29656 -81.46103 1589 ft 83 kts 336°
2026-05-01 14:31 28.30201 -81.46281 1833 ft 77 kts 340°
2026-05-01 14:32 28.30687 -81.46432 2156 ft 71 kts 338°
2026-05-01 14:32 28.31159 -81.46618 2426 ft 73 kts 338°
2026-05-01 14:32 28.31641 -81.46773 2685 ft 73 kts 342°
2026-05-01 14:32 28.32142 -81.46893 2920 ft 74 kts 348°
2026-05-01 14:33 28.32644 -81.46969 3172 ft 72 kts 347°
2026-05-01 14:33 28.33138 -81.47045 3423 ft 72 kts 349°
2026-05-01 14:33 28.33678 -81.47110 3495 ft 82 kts 349°
2026-05-01 14:33 28.34261 -81.47170 3515 ft 88 kts 352°
2026-05-01 14:34 28.34887 -81.47235 3519 ft 92 kts 353°
2026-05-01 14:34 28.35521 -81.47308 3502 ft 91 kts 351°
2026-05-01 14:34 28.36151 -81.47355 3489 ft 90 kts 355°
2026-05-01 14:34 28.36761 -81.47354 3482 ft 87 kts 357°
2026-05-01 14:35 28.37366 -81.47336 3488 ft 86 kts 357°
2026-05-01 14:35 28.37968 -81.47315 3492 ft 87 kts 358°
2026-05-01 14:35 28.38571 -81.47294 3515 ft 88 kts 359°
2026-05-01 14:35 28.38985 -81.47282 3549 ft 92 kts 359°
2026-05-01 14:36 28.39203 -81.47278 3557 ft 93 kts 359°
2026-05-01 14:36 28.40549 -81.47254 3526 ft 97 kts 357°
2026-05-01 14:36 28.41220 -81.47232 3520 ft 99 kts 360°
2026-05-01 14:36 28.41906 -81.47202 3504 ft 97 kts
2026-05-01 14:37 28.42573 -81.47171 3523 ft 95 kts
2026-05-01 14:37 28.43232 -81.47142 3526 ft 96 kts 359°
2026-05-01 14:37 28.43908 -81.47100 3516 ft 98 kts 359°
2026-05-01 14:37 28.44583 -81.47064 3511 ft 99 kts
2026-05-01 14:38 28.45273 -81.47040 3507 ft 99 kts 358°
2026-05-01 14:38 28.45957 -81.47015 3494 ft 98 kts 360°
2026-05-01 14:38 28.46627 -81.46995 3477 ft 95 kts
2026-05-01 14:38 28.47292 -81.46957 3485 ft 98 kts 358°
2026-05-01 14:39 28.47974 -81.46929 3492 ft 100 kts 358°
2026-05-01 14:39 28.48671 -81.46914 3484 ft 100 kts 358°
2026-05-01 14:39 28.49363 -81.46903 3495 ft 99 kts 358°
2026-05-01 14:39 28.50052 -81.46889 3483 ft 99 kts 358°
2026-05-01 14:40 28.50732 -81.46831 3495 ft 100 kts 14°
2026-05-01 14:40 28.51385 -81.46592 3526 ft 99 kts 16°
2026-05-01 14:40 28.52052 -81.46340 3556 ft 104 kts 18°
2026-05-01 14:40 28.52689 -81.46081 3765 ft 91 kts 17°
2026-05-01 14:41 28.53269 -81.45845 4033 ft 86 kts 17°
2026-05-01 14:41 28.53835 -81.45619 4279 ft 87 kts 17°
2026-05-01 14:41 28.54435 -81.45374 4393 ft 95 kts 18°
2026-05-01 14:41 28.55048 -81.45020 4453 ft 104 kts 39°
2026-05-01 14:42 28.55632 -81.44512 4482 ft 105 kts 37°
2026-05-01 14:42 28.56203 -81.44018 4480 ft 101 kts 37°
2026-05-01 14:42 28.56753 -81.43542 4479 ft 100 kts 37°
2026-05-01 14:42 28.57302 -81.43068 4481 ft 98 kts 36°
2026-05-01 14:43 28.57845 -81.42601 4504 ft 98 kts 37°
2026-05-01 14:43 28.58397 -81.42126 4513 ft 101 kts 37°
2026-05-01 14:43 28.58962 -81.41650 4517 ft 103 kts 36°
2026-05-01 14:43 28.59541 -81.41160 4501 ft 104 kts 37°
2026-05-01 14:44 28.60116 -81.40671 4496 ft 102 kts 37°
2026-05-01 14:44 28.61268 -81.39700 4502 ft 104 kts 35°
2026-05-01 14:44 28.61863 -81.39232 4496 ft 104 kts 34°
2026-05-01 14:45 28.62466 -81.38782 4488 ft 103 kts 31°
2026-05-01 14:45 28.63701 -81.37967 4488 ft 103 kts 28°
2026-05-01 14:45 28.64318 -81.37579 4472 ft 99 kts 27°
2026-05-01 14:46 28.64927 -81.37207 4491 ft 99 kts 24°
2026-05-01 14:46 28.66216 -81.36628 4487 ft 99 kts 18°
2026-05-01 14:46 28.66861 -81.36366 4487 ft 99 kts 18°
2026-05-01 14:47 28.67521 -81.36172 4478 ft 97 kts
2026-05-01 14:47 28.68179 -81.36019 4482 ft 95 kts
2026-05-01 14:47 28.68829 -81.35880 4484 ft 95 kts
2026-05-01 14:48 28.69674 -81.36457 4500 ft 87 kts 243°
2026-05-01 14:48 28.69146 -81.36660 4486 ft 92 kts 158°
2026-05-01 14:48 28.69357 -81.35508 4495 ft 97 kts 11°
2026-05-01 14:49 28.69694 -81.36392 4497 ft 90 kts 204°
2026-05-01 14:49 28.68477 -81.36218 4479 ft 86 kts 169°
2026-05-01 14:50 28.67553 -81.35905 4473 ft 79 kts 159°
2026-05-01 14:50 28.66630 -81.34899 4505 ft 83 kts 139°
2026-05-01 14:51 28.66219 -81.34418 4517 ft 86 kts 135°
2026-05-01 14:51 28.66545 -81.33202 4498 ft 89 kts 52°
2026-05-01 14:52 28.67331 -81.32182 4477 ft 81 kts 49°
2026-05-01 14:52 28.67707 -81.31711 4493 ft 81 kts 48°
2026-05-01 14:52 28.68435 -81.30778 4482 ft 77 kts 48°
2026-05-01 14:53 28.68784 -81.30308 4495 ft 78 kts 51°
2026-05-01 14:53 28.69135 -81.29868 4491 ft 76 kts 26°
2026-05-01 14:53 28.69624 -81.29605 4507 ft 79 kts 22°
2026-05-01 14:53 28.70118 -81.29328 4495 ft 79 kts 24°
2026-05-01 14:54 28.70627 -81.29083 4495 ft 80 kts 16°
2026-05-01 14:54 28.71167 -81.28912 4484 ft 80 kts 10°
2026-05-01 14:54 28.71698 -81.28770 4473 ft 77 kts
2026-05-01 14:54 28.72138 -81.28916 4465 ft 65 kts 305°
2026-05-01 14:55 28.72447 -81.29265 4458 ft 60 kts 303°
2026-05-01 14:55 28.72712 -81.29605 4473 ft 55 kts 303°
2026-05-01 14:55 28.72960 -81.29932 4514 ft 55 kts 306°
2026-05-01 14:55 28.73224 -81.30279 4546 ft 61 kts 304°
2026-05-01 14:56 28.73500 -81.30666 4568 ft 67 kts 304°
2026-05-01 14:56 28.73798 -81.31087 4552 ft 70 kts 303°
2026-05-01 14:56 28.74106 -81.31533 4517 ft 71 kts 303°
2026-05-01 14:56 28.74402 -81.31962 4484 ft 66 kts 303°
2026-05-01 14:57 28.74685 -81.32367 4473 ft 64 kts 303°
2026-05-01 14:57 28.75293 -81.33219 4508 ft 85 kts 303°
2026-05-01 14:57 28.75700 -81.33787 4539 ft 100 kts 317°
2026-05-01 14:58 28.76367 -81.33990 4497 ft 97 kts 347°
2026-05-01 14:58 28.77040 -81.34088 4496 ft 97 kts 349°
2026-05-01 14:58 28.77708 -81.34164 4488 ft 96 kts 351°
2026-05-01 14:58 28.78378 -81.34240 4487 ft 97 kts 351°
2026-05-01 14:59 28.79041 -81.34306 4474 ft 94 kts 351°
2026-05-01 14:59 28.79701 -81.34377 4489 ft 96 kts 351°
2026-05-01 14:59 28.80362 -81.34451 4481 ft 96 kts 351°
2026-05-01 14:59 28.81027 -81.34525 4477 ft 96 kts 351°
2026-05-01 15:00 28.82356 -81.34346 4484 ft 100 kts
2026-05-01 15:00 28.83053 -81.34171 4484 ft 104 kts 11°
2026-05-01 15:00 28.83763 -81.33989 4484 ft 105 kts 10°
2026-05-01 15:01 28.84469 -81.33805 4473 ft 103 kts 10°
2026-05-01 15:01 28.85162 -81.33624 4476 ft 104 kts 10°
2026-05-01 15:01 28.85871 -81.33439 4503 ft 105 kts
2026-05-01 15:01 28.86572 -81.33257 4490 ft 100 kts 10°
2026-05-01 15:02 28.87251 -81.33076 4507 ft 101 kts 11°
2026-05-01 15:02 28.87482 -81.33013 4515 ft 101 kts 11°
2026-05-01 15:02 28.88623 -81.32703 4489 ft 100 kts 11°
2026-05-01 15:02 28.89302 -81.32522 4489 ft 100 kts 10°
2026-05-01 15:03 28.89973 -81.32347 4482 ft 99 kts 10°
2026-05-01 15:03 28.90641 -81.32172 4486 ft 99 kts 10°
2026-05-01 15:03 28.91312 -81.31999 4485 ft 99 kts 10°
2026-05-01 15:03 28.91979 -81.31825 4481 ft 97 kts
2026-05-01 15:04 28.92637 -81.31652 4487 ft 97 kts 10°
2026-05-01 15:04 28.93300 -81.31486 4500 ft 98 kts
2026-05-01 15:04 28.93969 -81.31315 4487 ft 98 kts
2026-05-01 15:04 28.94633 -81.31145 4485 ft 97 kts 10°
2026-05-01 15:05 28.95293 -81.30973 4492 ft 97 kts 10°
2026-05-01 15:05 28.95944 -81.30804 4487 ft 96 kts
2026-05-01 15:05 28.96594 -81.30632 4482 ft 95 kts 10°
2026-05-01 15:05 28.97233 -81.30461 4483 ft 93 kts 11°
2026-05-01 15:06 28.97862 -81.30290 4493 ft 93 kts
2026-05-01 15:06 28.98481 -81.30118 4499 ft 93 kts 10°
2026-05-01 15:06 28.99114 -81.29949 4501 ft 93 kts 10°
2026-05-01 15:06 28.99753 -81.29780 4499 ft 94 kts 10°